Location: Unspecified
(0.0000°N, 0.0000°E)
Time: 01:39:49
(UTC+00:00)

STARLINK-2010 - Pass Details

Date: 24 February 2021
Orbit: 317 x 319 km, 53.1° (Epoch: 23 February)

Event Time Altitude Azimuth Distance (km) Brightness Sun altitude
Exits shadow 05:21:43 - 347° (NNW) 1,657 5.8 -12.7°
Reaches altitude 10° 05:22:52 10° 356° (N) 1,222 5.3 -12.4°
Maximum altitude 05:25:13 26° 56° (NE) 680 4.7 -11.8°
Drops below altitude 10° 05:27:35 10° 116° (ESE) 1,231 6.8 -11.3°
Sets 05:29:43 0° 129° (SE) 2,066 7.7 -10.7°
